Regional Weather Roundup
Issued by NWS Wakefield, VA

Home | Current Version | Previous Version | Graphics & Text | Print | Product List | Glossary On
Versions: 1 2 3 4 5 6 7 8 9 10 11 12 13 14 15 16 17 18 19 20 21 22 23 24 25 26 27 28 29 30 31 32 33 34 35 36 37 38 39 40 41 42 43 44 45 46 47 48 49 50
000
ASUS41 KAKQ 310412
RWRAKQ

REGIONAL WEATHER ROUNDUP
NATIONAL WEATHER SERVICE WAKEFIELD VA
1200 AM EDT MON AUG 31 2015

Note: "fair" indicates few or no clouds below 12,000 feet with no
significant weather and/or obstructions to visibility. * = Denotes
station may not report precipitation (e.g., rain,snow,etc.),
thunder or fog.

VAZ042-051-052>054-056-310500-
NORTHERN VIRGINIA

CITY           SKY/WX    TMP DP  RH WIND       PRES   REMARKS
WASH NATIONAL  CLOUDY    79  66  64 S9        30.09S
DULLES         CLOUDY    77  66  68 S8        30.09S
FORT BELVOIR   CLOUDY    73  69  87 SE1       30.09S
QUANTICO       CLOUDY    79  66  64 SW9       30.10S
FREDERICKSBRG* CLOUDY    77  66  68 CALM      30.09S
STAFFORD*      CLOUDY    74  64  69 CALM      30.13S
WARRENTON      CLOUDY    76  68  76 SW3       30.09S
CULPEPER*      CLOUDY    72  67  86 CALM      30.10S
MANASSAS*      CLOUDY    73  72  94 CALM      30.09S
LEESBURG*      CLOUDY    77  72  83 S9        30.09S
WINCHESTER     CLOUDY    77  63  61 SW3       30.09F
FRONT ROYAL*   FAIR      75  63  64 CALM      30.10R
LURAY*         MOCLDY    72  63  73 CALM      30.12S
$$

VAZ048-049-060>072-079>083-310500-
CENTRAL AND SOUTH CENTRAL VIRGINIA

CITY           SKY/WX    TMP DP  RH WIND       PRES   REMARKS
RICHMOND       CLOUDY    75  66  73 CALM      30.11S
CHESTERFIELD*  CLOUDY    75  57  53 CALM      30.13S
PETERSBURG*    CLOUDY    74  72  94 CALM      30.12S
HANOVER        CLOUDY    73  66  78 S3        30.12S
TAPPAHANNOCK*  CLOUDY    73  63  70 CALM      30.11S
QUINTON*       CLOUDY    73  67  80 S3        30.11S
CHARLOTTSVILLE CLOUDY    75  67  76 S3        30.11S
GORDONSVILLE*  CLOUDY    72  69  90 S5        30.10S
ORANGE*        CLOUDY    73  68  83 CALM      30.12R
LOUISA*        CLOUDY    75  66  73 CALM      30.10S
BUMPASS*       CLOUDY    74  65  73 SE5       30.11S
FARMVILLE*     CLOUDY    73  65  76 CALM      30.11S
CREWE*         CLOUDY   N/A N/A N/A CALM      30.12S
FORT PICKETT*  CLOUDY    72  67  85 SW5       30.12F
CHASE CITY*    CLOUDY    74  71  89 CALM      30.14S
CLARKSVILLE*   CLOUDY    72  66  83 SW3       30.13S
SOUTH HILL*    CLOUDY    72  66  82 CALM      30.19S
LAWRENCEVILLE* MOCLDY    72  68  88 CALM      30.13S
EMPORIA*       CLOUDY    70  66  88 CALM      30.14S
$$

VAZ088>098-310500-
SOUTHEAST VIRGINIA

CITY           SKY/WX    TMP DP  RH WIND       PRES   REMARKS
NORFOLK        CLOUDY    76  69  79 S7        30.12S
VIRGINIA BEACH CLOUDY    77  69  76 S5        30.12R
NORFOLK NAVAL  CLOUDY    77  69  76 S5        30.13S
WEST POINT*    CLOUDY    77  66  68 CALM      30.13R
SALUDA*        FAIR      75  65  72 S5        30.11S
NEWPORT NEWS   CLOUDY    78  70  76 S7        30.12S
LANGLEY AFB    CLOUDY    77  71  81 S5        30.11S
FORT EUSTIS    CLOUDY    77  76  99 S6        30.10S
WILLIAMSBURG*  CLOUDY    81  72  74 S5        30.12F
HR EXEC AP*      N/A     73  68  83 S3        30.14S
FRANKLIN*      CLOUDY    73  70  88 S3        30.12F
WAKEFIELD      CLOUDY    75  67  76 CALM      30.12S
$$

VAZ020-022-025-037-045-310500-
WEST CENTRAL AND SOUTHWEST VIRGINIA

CITY           SKY/WX    TMP DP  RH WIND       PRES   REMARKS
STAUNTON*      CLOUDY    74  65  74 S3        30.16F
WAYNESBORO*    MOCLDY    72  64  74 CALM      30.16S
HOT SPRINGS VA CLOUDY    67  59  76 W6        30.26S
LYNCHBURG      CLOUDY    71  65  81 CALM      30.16R
DANVILLE       CLOUDY    74  65  73 S3        30.14F
SOUTH BOSTON*  CLOUDY    73  65  75 CALM      30.13F
MARTINSVILLE   CLOUDY    70  70 100 CALM      30.17F
ROANOKE        CLOUDY    73  64  73 CALM      30.17S
BLACKSBURG     CLOUDY    68  65  89 CALM      30.23S
DUBLIN*        CLOUDY    70  66  86 CALM      30.21S
MARION*        CLOUDY    66  62  86 CALM      30.23F
HILLSVILLE*    CLOUDY    65  61  85 CALM      30.21F
RICHLANDS*     CLOUDY    68  31  24 SE3       30.21S
WISE*          CLOUDY    68  59  73 S3        30.22S
ABINGDON*      CLOUDY    70  60  71 CALM      30.18S
$$

MDZ021>025-VAZ099-100-310500-
SOUTHERN MARYLAND AND THE DELMARVA PENINSULA

CITY           SKY/WX    TMP DP  RH WIND       PRES   REMARKS
PATUXENT RIVER CLOUDY    76  64  66 SW8       30.10R
BAY BRIDGE APT   N/A     79  63  57 S5        30.09R
LEONARDTOWN    CLOUDY    73  63  68 CALM      30.12S
DOVER          CLOUDY    76  71  84 S9        30.07S
GEORGETOWN     CLOUDY    74  67  78 S6        30.11S
EASTON         NOT AVBL
CAMBRIDGE      CLOUDY    77  66  69 CALM      30.10S
SALISBURY      LGT RAIN  72  67  84 S3        30.10S
OCEAN CITY     CLOUDY    77  66  68 SW6       30.11R
WALLOPS ISLAND CLOUDY    75  69  81 SW7       30.12R
ACCOMACK*      CLOUDY    70  57  64 S3        30.12R
$$

NCZ012>017-030>032-310500-
NORTH CENTRAL AND EASTERN NORTH CAROLINA

CITY           SKY/WX    TMP DP  RH WIND       PRES   REMARKS
ROANOKE RAPIDS FAIR      72  64  78 CALM      30.13S
RALEIGH        CLOUDY    73  65  75 W3        30.14S
ELIZABETH CITY CLOUDY    75  72  90 S5        30.13S
AHOSKIE*       CLOUDY    72  66  83 CALM      30.13S
EDENTON*       CLOUDY    76  69  79 S6        30.12F
CURRITUCK*     CLOUDY    74  70  87 CALM      30.14R
KILL DEVIL HLS CLOUDY    76  71  85 SW3       30.12S
MANTEO         CLOUDY    76  73  89 SW5       30.13S
CAPE HATTERAS  CLOUDY    76  70  82 CALM      30.13S
TARBORO*       FAIR      75  65  71 CALM      30.14S
GOLDSBORO      CLOUDY    73  68  83 CALM      30.11F
WASHINGTON     CLOUDY    75  68  79 CALM      30.13S
GREENVILLE     CLOUDY    73  68  83 CALM      30.14S
NEW BERN       CLOUDY    73  68  84 CALM      30.14S
WILMINGTON     LGT RAIN  73  71  93 CALM      30.11F
$$

VAZ048-310500-
ELSEWHERE

CITY           SKY/WX    TMP DP  RH WIND       PRES   REMARKS
HARRISBURG PA  CLOUDY    75  66  73 SE3       30.06S
BALTIMORE      CLOUDY    77  66  68 CALM      30.07S
ANNAPOLIS      CLOUDY    77  63  61 S5        30.07S
ANDREWS AFB    CLOUDY    77  65  68 S8        30.08F
PHILADELPHIA   CLOUDY    80  65  59 SW13      30.08R
HENDERSON NC   CLOUDY    72  63  72 CALM      30.14S
GREENSBORO     CLOUDY    72  63  73 S5        30.14F
ROCKY MOUNT    CLOUDY    74  65  73 CALM      30.13S
$$

VAZ100-310500-
MARINE

STATION/POSITION TIME  TEMP    WIND        PRES    WAVE   SWELL
                       AIR SEA DIR/SP/G            HT/PER HT/PER
                 (UTC) (F)     (DEG/KT/KT) (MB)    (FT/S) (FT/S)
15NM E FENWICK I 0350   78 78  210/ 14/ 16 1019.4R   3/10   2/10
GOOSES REEF MD   0400   79 79  210/ 12/ 14 1019.9F
POTOMAC MD       0400   78 79  220/ 10/ 12 1018.3R   1/ 2
STINGRAY PT      0400   79 79  190/ 10/ 10 1019.8S   1
JAMESTOWN VA     0400   76 81  180/  8/ 10   N/A
CHESAPEAKE LGHT  0300   78     190/  9/  9 1020.5R
CAPE HENRY BUOY  0328      79                N/A     3/10   2/11
1ST LANDING BUOY 0400      79              1019.5S   1/ 5
CAPE CHARLES BUO 0326      79                N/A     2/10   2/10
OFFSHORE WE BUOY 0311      79                N/A     3/11   3/11
64NM E OF VA BCH 0350   77 78  200/  4/  4 1019.8R   4/11   3/11
44100 DUCK FRF   0324      78                N/A     3/11   2/11
44056 DUCK FRF   0311      79                N/A     3/10   2/11
DIAMOND SHLS NC  0350   79 84  270/  2/  4 1020.6R   3/10   3/10
CAPE LOOKOUT NC  0400   78      CALM  /  1 1019.6F
$$



USA.gov is the U.S. government's official web portal to all federal, state and local government web resources and services.